Wind_Speed
58 61 61 61 59 56 57 60 64 66 68 69 67 64 61 58 55 54 54 55 58 59 60 60 60 61 62 61 61 60 60 59 58 60 60 59 60 60 57 56 58 60 62
61 62 64 64 60 60 65 67 69 70 69 67 68 66 64 61 60 61 60 58 59 60 60 60 61 64 65 65 65 64 65 66 65 65 65 65 67 69 68 66 65 67 68
63 66 65 67 66 66 69 71 72 72 68 67 69 72 69 66 64 65 64 63 61 61 63 62 64 65 64 65 67 69 70 70 69 68 67 68 68 68 69 68 64 65 67
67 68 68 67 71 74 76 76 74 74 73 71 72 74 73 70 69 68 68 68 65 64 64 67 68 66 65 67 68 71 73 73 71 69 67 66 64 64 64 60 58 60 62
80 81 81 78 75 76 75 75 73 69 73 77 78 76 73 71 68 69 70 70 70 69 67 69 69 68 68 67 68 69 69 66 64 62 61 60 58 60 58 57 62 64 66
87 92 92 87 82 79 80 81 81 78 77 77 79 77 70 68 68 70 72 72 72 71 69 67 65 65 63 62 64 66 65 61 57 56 57 56 57 57 58 63 66 67 69
88 88 88 84 84 84 85 87 87 84 81 77 75 74 74 75 74 73 73 74 72 71 70 66 64 61 60 59 59 61 61 57 56 57 58 60 62 63 67 70 74 73 70
90 88 86 85 85 87 89 91 91 87 84 82 79 77 75 79 78 78 77 74 70 68 67 66 64 63 63 61 63 63 59 56 60 63 64 67 68 70 72 73 74 72 73
89 92 91 89 87 86 88 91 94 96 92 85 82 79 74 75 81 82 75 69 65 67 68 66 64 63 59 58 61 66 62 61 62 63 67 69 71 73 75 74 74 79 79
87 89 87 86 85 83 83 84 82 85 91 90 88 82 74 73 79 83 79 63 62 67 64 58 58 55 54 56 61 66 66 68 69 67 69 70 70 73 76 77 83 87 90
79 76 75 78 78 78 77 76 72 70 71 75 80 81 79 80 83 78 68 64 66 65 60 59 60 60 63 62 65 67 71 75 74 74 74 73 74 76 79 81 88 93 94
91 84 79 74 71 71 74 72 70 72 70 65 67 66 65 65 66 67 63 62 66 66 64 62 64 62 64 64 63 68 73 79 76 76 78 77 77 78 82 85 86 91 89
102 99 94 84 78 71 70 68 68 72 71 71 73 74 70 64 60 58 59 63 69 65 60 56 58 62 66 66 65 69 72 76 78 79 81 82 82 82 82 82 83 84 82
111 108 106 105 99 89 83 78 79 78 79 77 76 73 73 69 64 61 57 57 63 60 60 59 62 65 64 63 65 67 72 77 78 79 79 79 81 80 78 81 81 79 75
106 115 117 117 116 107 102 99 97 94 90 80 78 75 72 70 68 74 73 65 60 61 64 67 69 64 62 71 76 73 73 77 75 73 71 73 77 79 79 79 76 73 72
95 100 106 111 113 110 106 101 99 97 92 87 76 73 74 73 75 77 73 74 73 72 71 68 68 70 68 71 78 76 72 72 73 73 74 75 75 75 74 74 71 68 67
83 86 91 93 96 95 99 99 91 90 91 91 84 75 71 73 78 77 76 80 79 77 77 72 74 78 77 75 76 79 76 74 76 77 76 74 72 69 68 66 63 62 63
69 70 73 75 78 79 80 86 89 88 90 94 90 79 69 70 76 78 73 71 73 77 76 75 75 73 72 71 72 73 74 77 79 78 75 72 67 61 59 58 59 61 63
59 60 61 61 64 67 68 70 78 89 93 96 92 82 71 70 72 76 77 72 70 70 71 72 71 70 69 74 78 79 81 81 79 76 70 65 61 58 56 56 59 62 65
48 50 52 54 56 58 58 59 63 72 84 96 100 94 86 80 77 80 83 83 81 81 82 84 82 76 74 77 81 81 80 77 72 66 61 57 56 56 55 56 59 62 64
38 39 41 43 45 46 47 47 48 51 56 64 75 83 83 83 84 85 87 86 84 83 86 87 92 89 79 76 73 69 66 63 59 56 53 52 54 54 55 57 59 62 64
28 27 27 29 31 33 35 37 39 40 43 47 51 56 63 69 76 78 74 70 70 72 74 71 69 67 63 59 57 55 55 55 53 49 49 50 51 52 55 58 61 64 66
16 15 14 16 18 18 19 23 27 30 31 34 39 42 46 48 50 52 52 50 50 50 49 48 48 50 51 53 51 49 49 47 45 44 45 47 50 53 57 60 63 66 69
11 7 8 11 13 14 12 13 16 19 22 25 25 25 26 28 32 37 41 42 42 43 43 42 41 42 45 45 45 46 45 43 42 43 45 48 52 56 59 62 65 68 71
13 11 9 11 14 17 19 22 23 23 23 25 27 28 28 28 30 33 33 36 40 40 38 38 39 40 40 39 41 42 40 40 43 45 48 52 55 59 62 65 68 71 74
11 8 5 5 7 10 13 16 21 23 22 23 25 27 27 27 28 29 30 32 35 36 37 38 39 39 39 38 37 36 37 41 45 48 52 55 58 61 64 67 70 74 77
Wind_Direction
252 250 252 251 249 255 262 261 260 262 264 267 268 271 272 272 270 269 272 274 276 278 277 276 275 276 275 275 274 272 273 274 276 279 280 284 289 292 293 292 292 292 292
252 248 250 250 249 253 258 260 258 259 262 265 268 270 272 272 272 271 271 271 273 275 275 274 275 275 275 274 273 271 272 274 277 280 283 285 286 287 290 292 293 293 292
252 250 251 253 255 255 255 258 259 257 258 263 266 268 270 271 272 272 270 268 269 270 269 269 270 271 272 270 270 270 272 275 280 285 286 284 284 285 286 288 291 293 291
259 258 257 262 263 262 260 258 257 258 258 259 262 265 268 271 273 272 269 267 266 265 264 265 266 268 270 271 271 273 275 279 282 284 282 282 283 284 285 289 293 295 294
260 261 264 266 265 263 260 259 255 258 262 263 263 265 268 271 272 271 267 266 266 264 263 264 265 266 269 273 275 277 280 283 284 284 283 282 281 284 287 294 298 295 293
265 264 265 266 264 258 255 256 256 260 263 262 262 263 265 267 270 270 266 265 263 262 262 262 264 268 271 274 278 280 281 282 282 283 281 278 280 283 288 294 298 298 303
270 268 267 265 261 257 256 254 253 255 259 258 258 259 264 266 267 266 263 262 261 261 260 260 265 268 273 277 279 280 280 281 280 279 276 277 280 285 290 291 293 297 305
270 271 266 259 256 254 252 251 250 251 254 257 258 260 264 265 264 262 259 258 258 260 261 261 264 268 270 272 272 273 277 279 277 275 273 276 280 288 292 293 294 295 300
268 271 266 258 255 254 252 254 253 251 252 256 260 260 262 264 262 258 257 258 260 261 261 263 266 269 274 280 278 276 274 274 276 277 278 279 282 287 292 296 297 299 304
265 265 262 260 259 257 259 260 258 256 256 258 262 264 264 266 268 267 260 260 265 263 261 264 266 270 279 280 275 273 269 271 274 279 283 284 287 290 294 299 303 302 303
262 261 260 262 261 258 257 259 265 268 266 264 265 267 268 269 269 265 263 267 266 262 263 263 266 272 277 274 274 273 274 275 275 279 284 286 288 291 293 299 306 306 304
263 264 264 261 257 257 256 261 269 272 267 262 262 262 264 264 263 263 265 264 261 262 261 267 271 270 274 271 273 276 277 275 273 279 283 286 292 295 297 300 304 305 306
259 259 258 257 256 262 266 269 272 273 269 260 258 259 259 263 265 263 260 260 263 266 267 265 268 274 272 273 278 282 279 275 274 278 281 286 293 296 299 301 302 303 302
255 255 258 261 261 264 268 268 268 270 269 263 257 254 254 257 260 256 258 265 260 261 263 258 267 268 267 274 279 279 278 273 272 274 280 288 294 298 298 299 298 297 295
258 256 257 262 265 264 263 263 265 265 265 256 253 253 253 256 258 252 249 255 255 257 260 262 264 263 271 276 272 270 267 268 271 277 283 289 292 294 294 294 292 291 293
264 261 259 259 262 263 263 262 262 261 259 252 249 249 249 249 250 247 246 253 252 256 260 258 260 265 273 270 265 262 260 264 271 279 284 287 287 286 287 288 290 292 296
268 265 263 260 259 260 259 257 254 252 251 246 244 246 247 248 244 243 247 249 250 257 257 255 261 266 268 267 265 263 261 266 274 279 282 283 284 285 287 289 291 294 297
270 268 267 265 262 258 254 251 248 245 241 239 239 238 242 246 246 246 247 248 249 252 253 255 259 260 261 262 263 265 267 273 279 282 283 283 285 287 290 292 294 295 296
271 267 265 263 260 258 254 249 244 241 238 237 236 236 241 245 249 250 250 249 249 251 256 258 257 262 267 265 264 267 273 278 281 281 281 282 284 288 292 293 294 295 297
273 267 263 260 258 257 256 252 248 245 243 242 243 247 250 251 252 256 256 254 251 253 261 266 267 270 271 272 273 273 275 276 278 278 279 281 285 289 291 290 292 295 298
276 269 264 260 259 258 257 255 251 247 245 244 245 247 251 252 253 256 258 257 258 258 261 263 266 270 272 273 273 272 272 274 276 278 281 283 286 287 287 288 292 296 301
280 268 261 258 259 260 260 256 251 246 242 240 241 242 243 246 250 252 254 254 255 255 257 259 262 266 268 269 270 271 272 274 274 275 277 281 283 283 285 289 293 297 302
283 269 257 257 265 265 256 246 240 236 235 234 235 237 239 241 241 241 241 242 243 245 248 251 253 258 262 263 265 267 267 265 265 269 275 279 281 284 286 290 294 298 302
352 320 271 255 252 253 246 224 214 220 228 231 231 233 236 239 237 236 236 235 237 240 243 249 254 258 261 265 265 260 257 259 265 271 277 280 283 285 288 292 296 300 303
348 331 300 267 254 248 242 234 229 235 236 235 234 236 240 244 240 234 232 236 240 245 249 251 253 256 261 264 259 255 258 265 272 277 281 283 285 287 290 294 299 302 304
358 348 323 277 257 249 243 237 233 234 239 239 239 240 244 246 238 231 239 247 246 245 245 247 250 254 258 256 256 260 267 273 277 279 281 283 286 290 294 298 300 303 305
Height
5639 5639 5640 5640 5641 5643 5644 5644 5643 5642 5641 5641 5640 5642 5643 5643 5643 5643 5644 5644 5644 5643 5642 5642 5642 5643 5643 5643 5642 5642 5642 5641 5641 5638 5636 5632 5629 5629 5630 5629 5627 5624 5622
5621 5621 5623 5624 5624 5627 5628 5626 5623 5623 5622 5620 5620 5623 5625 5626 5626 5626 5625 5627 5627 5626 5625 5625 5625 5626 5626 5625 5625 5624 5624 5622 5620 5618 5617 5616 5613 5612 5611 5611 5609 5605 5602
5604 5606 5606 5606 5606 5607 5608 5608 5607 5603 5602 5603 5604 5605 5607 5608 5610 5610 5609 5608 5608 5607 5608 5607 5606 5608 5609 5608 5608 5607 5606 5604 5601 5601 5599 5597 5595 5594 5594 5594 5593 5592 5588
5582 5582 5584 5585 5586 5588 5588 5587 5587 5586 5585 5585 5586 5588 5588 5588 5590 5591 5591 5590 5589 5588 5589 5589 5589 5590 5592 5592 5590 5588 5587 5585 5584 5583 5582 5580 5578 5577 5578 5578 5577 5576 5573
5559 5560 5561 5564 5565 5566 5565 5564 5566 5567 5568 5567 5567 5567 5567 5567 5570 5571 5571 5571 5571 5571 5571 5571 5572 5573 5574 5573 5571 5570 5568 5567 5566 5567 5566 5563 5561 5561 5561 5560 5560 5560 5556
5532 5532 5534 5536 5540 5541 5542 5542 5544 5546 5546 5546 5547 5548 5548 5549 5552 5550 5550 5550 5552 5554 5554 5553 5553 5555 5556 5555 5553 5551 5550 5549 5549 5549 5548 5546 5544 5544 5542 5540 5540 5539 5536
5508 5507 5508 5511 5514 5517 5519 5520 5521 5520 5521 5524 5525 5526 5529 5531 5531 5530 5528 5530 5532 5533 5535 5535 5536 5537 5537 5537 5535 5534 5533 5533 5532 5533 5531 5528 5528 5525 5523 5522 5518 5515 5509
5481 5481 5483 5485 5488 5492 5494 5495 5497 5498 5500 5502 5503 5504 5506 5510 5509 5509 5509 5510 5511 5513 5515 5516 5518 5519 5519 5518 5518 5517 5516 5516 5516 5516 5514 5510 5508 5504 5501 5499 5496 5493 5486
5455 5457 5457 5459 5462 5465 5468 5470 5472 5475 5476 5478 5479 5482 5483 5486 5489 5488 5488 5490 5491 5495 5497 5498 5500 5501 5500 5499 5499 5499 5497 5496 5496 5495 5493 5490 5487 5483 5479 5477 5471 5466 5461
5426 5427 5427 5428 5431 5435 5439 5442 5445 5448 5451 5452 5454 5456 5460 5463 5467 5469 5471 5472 5473 5476 5478 5479 5481 5482 5482 5481 5481 5480 5478 5477 5477 5475 5472 5469 5466 5462 5456 5450 5445 5437 5431
5394 5396 5398 5400 5404 5407 5412 5416 5419 5422 5426 5430 5432 5434 5437 5442 5445 5446 5449 5454 5456 5457 5459 5460 5460 5460 5460 5462 5461 5461 5460 5459 5456 5454 5451 5448 5445 5441 5434 5424 5417 5411 5406
5365 5369 5373 5376 5380 5380 5384 5388 5392 5398 5402 5407 5410 5412 5416 5419 5420 5424 5429 5436 5436 5437 5439 5441 5441 5441 5442 5443 5443 5442 5442 5439 5436 5434 5431 5427 5423 5417 5411 5404 5395 5388 5382
5336 5342 5347 5347 5350 5352 5356 5363 5367 5372 5378 5383 5388 5392 5394 5395 5397 5401 5409 5417 5417 5418 5420 5421 5421 5422 5422 5423 5424 5424 5422 5419 5417 5413 5409 5406 5401 5396 5390 5384 5376 5368 5360
5302 5308 5313 5317 5321 5324 5331 5341 5346 5350 5355 5358 5364 5369 5373 5377 5379 5383 5389 5395 5398 5399 5400 5401 5402 5402 5403 5403 5402 5402 5402 5399 5396 5392 5387 5385 5381 5375 5369 5362 5356 5347 5343
5266 5273 5278 5281 5286 5294 5303 5313 5321 5327 5333 5337 5340 5346 5351 5357 5359 5361 5364 5370 5377 5379 5379 5382 5383 5383 5384 5381 5379 5380 5379 5376 5374 5370 5366 5361 5356 5352 5346 5339 5333 5326 5322
5228 5235 5241 5248 5253 5260 5270 5281 5290 5300 5307 5313 5317 5325 5331 5336 5338 5339 5342 5348 5354 5358 5359 5361 5363 5364 5364 5363 5361 5359 5358 5356 5353 5350 5345 5340 5335 5330 5326 5319 5312 5306 5301
5195 5201 5205 5213 5221 5227 5236 5247 5257 5267 5277 5288 5294 5302 5310 5314 5318 5318 5319 5323 5328 5335 5338 5340 5341 5341 5341 5340 5339 5338 5337 5336 5334 5330 5324 5321 5317 5312 5306 5300 5293 5287 5282
5166 5170 5174 5179 5186 5194 5203 5213 5223 5234 5248 5261 5270 5277 5284 5290 5293 5296 5296 5298 5303 5313 5318 5317 5318 5317 5317 5317 5317 5316 5315 5313 5312 5308 5303 5301 5298 5293 5288 5283 5276 5270 5265
5140 5142 5145 5150 5156 5162 5172 5183 5192 5203 5219 5232 5242 5249 5259 5266 5271 5274 5275 5278 5285 5295 5301 5298 5295 5293 5293 5293 5293 5292 5290 5290 5288 5285 5282 5280 5277 5274 5270 5265 5260 5254 5247
5119 5119 5122 5127 5132 5139 5147 5157 5167 5177 5191 5204 5216 5223 5232 5241 5248 5251 5253 5257 5264 5272 5275 5275 5273 5271 5271 5271 5273 5271 5268 5267 5266 5264 5263 5261 5258 5254 5252 5250 5245 5238 5230
5102 5103 5105 5110 5115 5122 5128 5135 5144 5154 5165 5176 5188 5198 5205 5213 5220 5226 5230 5236 5241 5243 5245 5246 5248 5250 5250 5250 5249 5248 5247 5246 5246 5246 5246 5244 5241 5239 5237 5233 5228 5221 5213
5091 5092 5095 5099 5104 5109 5115 5121 5129 5137 5147 5157 5165 5173 5179 5188 5197 5205 5209 5211 5214 5217 5221 5223 5224 5226 5229 5230 5230 5229 5229 5229 5230 5230 5230 5227 5226 5224 5221 5217 5211 5204 5196
5085 5087 5091 5095 5099 5102 5105 5111 5117 5126 5135 5143 5150 5157 5164 5172 5177 5181 5185 5190 5193 5198 5201 5205 5208 5210 5212 5213 5213 5213 5214 5215 5215 5215 5215 5213 5211 5209 5206 5201 5195 5187 5179
5088 5089 5091 5094 5098 5102 5106 5111 5117 5123 5130 5136 5143 5150 5155 5158 5160 5165 5171 5176 5181 5185 5187 5189 5191 5194 5196 5198 5199 5200 5201 5202 5202 5201 5200 5199 5197 5194 5190 5185 5178 5170 5161
5093 5093 5094 5096 5099 5103 5107 5112 5117 5123 5128 5132 5137 5142 5145 5147 5150 5154 5159 5165 5169 5171 5173 5175 5178 5180 5183 5185 5186 5188 5189 5189 5188 5187 5187 5185 5182 5178 5174 5169 5161 5153 5143
5099 5098 5098 5100 5102 5105 5107 5111 5115 5119 5123 5126 5130 5133 5135 5138 5141 5145 5149 5152 5155 5158 5160 5163 5165 5168 5171 5173 5175 5175 5176 5176 5175 5175 5174 5171 5167 5162 5157 5151 5143 5134 5126